Time,TemperatureF,DewpointF,PressureIn,WindDirection,WindDirectionDegrees,WindSpeedMPH,WindSpeedGustMPH,Humidity,HourlyPrecipIn,Conditions,Clouds,dailyrainin,SoftwareType,DateUTC
2013-02-06 00:10:00,29.6,27.0,30.13,NW,307,2.0,3.0,89,0.00,,,0.00,weatherlink.com 1.10,2013-02-06 06:10:00,
2013-02-06 00:25:00,29.3,27.0,30.14,NW,309,0.0,2.0,90,0.00,,,0.00,weatherlink.com 1.10,2013-02-06 06:25:00,
2013-02-06 00:40:00,28.6,26.0,30.14,NW,309,0.0,0.0,90,0.00,,,0.00,weatherlink.com 1.10,2013-02-06 06:40:00,
2013-02-06 00:55:00,28.3,26.0,30.14,WNW,301,0.0,1.0,91,0.00,,,0.00,weatherlink.com 1.10,2013-02-06 06:55:00,
2013-02-06 01:10:00,27.7,26.0,30.15,WNW,301,0.0,1.0,91,0.00,,,0.00,weatherlink.com 1.10,2013-02-06 07:10:00,
2013-02-06 01:25:00,27.5,26.0,30.15,WSW,253,0.0,1.0,92,0.00,,,0.00,weatherlink.com 1.10,2013-02-06 07:25:00,
2013-02-06 01:40:00,26.2,24.0,30.15,WSW,253,0.0,0.0,91,0.00,,,0.00,weatherlink.com 1.10,2013-02-06 07:40:00,
2013-02-06 01:55:00,25.5,24.0,30.16,SW,217,0.0,1.0,92,0.00,,,0.00,weatherlink.com 1.10,2013-02-06 07:55:00,
2013-02-06 02:10:00,24.8,23.0,30.17,SW,218,0.0,1.0,93,0.00,,,0.00,weatherlink.com 1.10,2013-02-06 08:10:00,
2013-02-06 02:25:00,24.4,23.0,30.17,SW,218,0.0,0.0,93,0.00,,,0.00,weatherlink.com 1.10,2013-02-06 08:25:00,
2013-02-06 02:40:00,24.4,23.0,30.17,SW,218,0.0,1.0,94,0.00,,,0.00,weatherlink.com 1.10,2013-02-06 08:40:00,
2013-02-06 02:55:00,24.1,23.0,30.16,SW,217,0.0,0.0,94,0.00,,,0.00,weatherlink.com 1.10,2013-02-06 08:55:00,
2013-02-06 03:10:00,23.4,22.0,30.17,SW,218,0.0,0.0,94,0.00,,,0.00,weatherlink.com 1.10,2013-02-06 09:10:00,
2013-02-06 03:25:00,22.3,21.0,30.17,SW,218,0.0,0.0,94,0.00,,,0.00,weatherlink.com 1.10,2013-02-06 09:25:00,
2013-02-06 03:40:00,22.7,22.0,30.17,SW,218,0.0,0.0,95,0.00,,,0.00,weatherlink.com 1.10,2013-02-06 09:40:00,
2013-02-06 03:55:00,22.6,21.0,30.17,SW,218,0.0,0.0,95,0.00,,,0.00,weatherlink.com 1.10,2013-02-06 09:55:00,
2013-02-06 04:10:00,22.5,21.0,30.17,SW,218,0.0,0.0,95,0.00,,,0.00,weatherlink.com 1.10,2013-02-06 10:10:00,
2013-02-06 04:25:00,22.7,22.0,30.18,SW,218,0.0,0.0,95,0.00,,,0.00,weatherlink.com 1.10,2013-02-06 10:25:00,
2013-02-06 04:40:00,22.3,21.0,30.18,SW,218,0.0,0.0,95,0.00,,,0.00,weatherlink.com 1.10,2013-02-06 10:40:00,
2013-02-06 04:55:00,21.8,21.0,30.18,SW,218,0.0,0.0,95,0.00,,,0.00,weatherlink.com 1.10,2013-02-06 10:55:00,
2013-02-06 05:11:00,22.4,21.0,30.18,SW,218,0.0,0.0,95,0.00,,,0.00,weatherlink.com 1.10,2013-02-06 11:11:00,
2013-02-06 05:26:00,21.5,20.0,30.18,SW,218,0.0,0.0,94,0.00,,,0.00,weatherlink.com 1.10,2013-02-06 11:26:00,
2013-02-06 05:41:00,21.7,21.0,30.20,SW,218,0.0,0.0,95,0.00,,,0.00,weatherlink.com 1.10,2013-02-06 11:41:00,
2013-02-06 05:56:00,21.5,20.0,30.20,SW,218,0.0,0.0,95,0.00,,,0.00,weatherlink.com 1.10,2013-02-06 11:56:00,
2013-02-06 06:11:00,20.7,20.0,30.20,SW,218,0.0,0.0,95,0.00,,,0.00,weatherlink.com 1.10,2013-02-06 12:11:00,
2013-02-06 06:26:00,20.8,20.0,30.21,SW,218,0.0,0.0,95,0.00,,,0.00,weatherlink.com 1.10,2013-02-06 12:26:00,
2013-02-06 06:41:00,20.3,19.0,30.21,SW,219,0.0,0.0,95,0.00,,,0.00,weatherlink.com 1.10,2013-02-06 12:41:00,
2013-02-06 06:56:00,19.8,19.0,30.20,SW,217,0.0,0.0,95,0.00,,,0.00,weatherlink.com 1.10,2013-02-06 12:56:00,
2013-02-06 07:11:00,20.0,19.0,30.21,SW,217,0.0,0.0,95,0.00,,,0.00,weatherlink.com 1.10,2013-02-06 13:11:00,
2013-02-06 07:26:00,19.7,19.0,30.21,SW,217,0.0,0.0,95,0.00,,,0.00,weatherlink.com 1.10,2013-02-06 13:26:00,
2013-02-06 07:41:00,21.1,20.0,30.21,SSW,211,0.0,0.0,96,0.00,,,0.00,weatherlink.com 1.10,2013-02-06 13:41:00,
2013-02-06 07:56:00,24.0,23.0,30.21,SSW,212,0.0,0.0,96,0.00,,,0.00,weatherlink.com 1.10,2013-02-06 13:56:00,
2013-02-06 08:11:00,26.4,25.0,30.22,ESE,121,0.0,2.0,96,0.00,,,0.00,weatherlink.com 1.10,2013-02-06 14:11:00,
2013-02-06 08:26:00,27.9,27.0,30.22,SSE,149,2.0,3.0,96,0.00,,,0.00,weatherlink.com 1.10,2013-02-06 14:26:00,
2013-02-06 08:41:00,28.9,27.0,30.21,ESE,123,1.0,4.0,94,0.00,,,0.00,weatherlink.com 1.10,2013-02-06 14:41:00,
2013-02-06 08:56:00,30.6,29.0,30.21,ESE,117,2.0,3.0,92,0.00,,,0.00,weatherlink.com 1.10,2013-02-06 14:56:00,
2013-02-06 09:11:00,31.5,29.0,30.21,SE,126,3.0,6.0,90,0.00,,,0.00,weatherlink.com 1.10,2013-02-06 15:11:00,
2013-02-06 09:26:00,32.3,29.0,30.22,SE,132,2.0,8.0,87,0.00,,,0.00,weatherlink.com 1.10,2013-02-06 15:26:00,
2013-02-06 09:41:00,33.2,29.0,30.22,South,170,2.0,7.0,85,0.00,,,0.00,weatherlink.com 1.10,2013-02-06 15:41:00,
2013-02-06 09:56:00,34.1,30.0,30.23,SSE,163,6.0,9.0,84,0.00,,,0.00,weatherlink.com 1.10,2013-02-06 15:56:00,
2013-02-06 10:11:00,34.3,30.0,30.23,SSW,200,4.0,14.0,85,0.00,,,0.00,weatherlink.com 1.10,2013-02-06 16:11:00,
2013-02-06 10:26:00,35.4,31.0,30.23,SSE,161,4.0,10.0,83,0.00,,,0.00,weatherlink.com 1.10,2013-02-06 16:26:00,
2013-02-06 10:41:00,36.8,32.0,30.23,South,174,5.0,8.0,82,0.00,,,0.00,weatherlink.com 1.10,2013-02-06 16:41:00,
2013-02-06 10:56:00,37.6,32.0,30.22,SE,142,4.0,11.0,80,0.00,,,0.00,weatherlink.com 1.10,2013-02-06 16:56:00,
2013-02-06 11:26:00,38.6,33.0,30.21,SSE,150,5.0,8.0,79,0.00,,,0.00,weatherlink.com 1.10,2013-02-06 17:26:00,
2013-02-06 11:42:00,39.8,33.0,30.21,ESE,122,2.0,8.0,77,0.00,,,0.00,weatherlink.com 1.10,2013-02-06 17:42:00,
2013-02-06 11:57:00,40.4,33.0,30.20,South,190,4.0,11.0,76,0.00,,,0.00,weatherlink.com 1.10,2013-02-06 17:57:00,
2013-02-06 12:12:00,40.9,33.0,30.19,SSE,150,4.0,9.0,74,0.00,,,0.00,weatherlink.com 1.10,2013-02-06 18:12:00,
2013-02-06 12:27:00,41.3,34.0,30.19,South,169,2.0,10.0,74,0.00,,,0.00,weatherlink.com 1.10,2013-02-06 18:27:00,
2013-02-06 12:42:00,41.6,34.0,30.19,SE,139,5.0,10.0,73,0.00,,,0.00,weatherlink.com 1.10,2013-02-06 18:42:00,
2013-02-06 12:57:00,42.3,34.0,30.19,SSE,152,6.0,11.0,72,0.00,,,0.00,weatherlink.com 1.10,2013-02-06 18:57:00,
2013-02-06 13:12:00,42.7,34.0,30.18,South,174,7.0,11.0,71,0.00,,,0.00,weatherlink.com 1.10,2013-02-06 19:12:00,
2013-02-06 13:27:00,43.2,34.0,30.17,SSE,156,8.0,10.0,70,0.00,,,0.00,weatherlink.com 1.10,2013-02-06 19:27:00,
2013-02-06 13:42:00,43.7,33.0,30.16,South,169,7.0,13.0,67,0.00,,,0.00,weatherlink.com 1.10,2013-02-06 19:42:00,
2013-02-06 13:57:00,44.1,33.0,30.16,ESE,122,6.0,13.0,66,0.00,,,0.00,weatherlink.com 1.10,2013-02-06 19:57:00,
2013-02-06 14:27:00,44.8,33.0,30.15,SE,146,5.0,11.0,64,0.00,,,0.00,weatherlink.com 1.10,2013-02-06 20:27:00,
2013-02-06 14:42:00,44.4,33.0,30.14,SW,224,7.0,13.0,65,0.00,,,0.00,weatherlink.com 1.10,2013-02-06 20:42:00,
2013-02-06 14:57:00,44.0,34.0,30.13,ENE,73,5.0,10.0,67,0.00,,,0.00,weatherlink.com 1.10,2013-02-06 20:57:00,
2013-02-06 15:12:00,43.8,33.0,30.12,SSE,158,4.0,12.0,67,0.00,,,0.00,weatherlink.com 1.10,2013-02-06 21:12:00,
2013-02-06 15:27:00,43.8,34.0,30.12,ENE,78,2.0,10.0,68,0.00,,,0.00,weatherlink.com 1.10,2013-02-06 21:27:00,
2013-02-06 15:42:00,44.5,34.0,30.11,SE,139,7.0,12.0,67,0.00,,,0.00,weatherlink.com 1.10,2013-02-06 21:42:00,
2013-02-06 15:57:00,44.7,33.0,30.10,East,100,6.0,12.0,65,0.00,,,0.00,weatherlink.com 1.10,2013-02-06 21:57:00,
2013-02-06 16:12:00,43.8,33.0,30.10,East,91,4.0,10.0,67,0.00,,,0.00,weatherlink.com 1.10,2013-02-06 22:12:00,
2013-02-06 16:27:00,43.4,34.0,30.09,East,96,2.0,7.0,69,0.00,,,0.00,weatherlink.com 1.10,2013-02-06 22:27:00,
2013-02-06 16:42:00,43.1,34.0,30.09,SE,135,4.0,9.0,70,0.00,,,0.00,weatherlink.com 1.10,2013-02-06 22:42:00,
2013-02-06 16:57:00,42.7,34.0,30.10,ESE,122,4.0,7.0,70,0.00,,,0.00,weatherlink.com 1.10,2013-02-06 22:57:00,
2013-02-06 17:12:00,42.2,33.0,30.10,ESE,118,3.0,6.0,71,0.00,,,0.00,weatherlink.com 1.10,2013-02-06 23:12:00,
2013-02-06 17:27:00,41.7,33.0,30.11,SSE,154,3.0,6.0,72,0.00,,,0.00,weatherlink.com 1.10,2013-02-06 23:27:00,
2013-02-06 17:42:00,41.5,33.0,30.11,SE,134,3.0,8.0,73,0.00,,,0.00,weatherlink.com 1.10,2013-02-06 23:42:00,
2013-02-06 17:57:00,41.4,34.0,30.11,ESE,111,3.0,8.0,74,0.00,,,0.00,weatherlink.com 1.10,2013-02-06 23:57:00,
2013-02-06 18:12:00,41.0,34.0,30.10,SE,124,8.0,9.0,75,0.00,,,0.00,weatherlink.com 1.10,2013-02-07 00:12:00,
2013-02-06 18:27:00,40.7,33.0,30.09,SE,127,5.0,9.0,75,0.00,,,0.00,weatherlink.com 1.10,2013-02-07 00:27:00,
2013-02-06 18:42:00,40.6,33.0,30.09,ESE,121,3.0,9.0,75,0.00,,,0.00,weatherlink.com 1.10,2013-02-07 00:42:00,
2013-02-06 18:57:00,40.3,33.0,30.09,East,91,4.0,7.0,76,0.00,,,0.00,weatherlink.com 1.10,2013-02-07 00:57:00,
2013-02-06 19:12:00,40.2,33.0,30.09,East,98,4.0,10.0,76,0.00,,,0.00,weatherlink.com 1.10,2013-02-07 01:12:00,
2013-02-06 19:27:00,39.9,33.0,30.08,ESE,119,4.0,8.0,76,0.00,,,0.00,weatherlink.com 1.10,2013-02-07 01:27:00,
2013-02-06 19:42:00,39.7,33.0,30.09,SE,141,4.0,8.0,76,0.00,,,0.00,weatherlink.com 1.10,2013-02-07 01:42:00,
2013-02-06 19:57:00,39.5,33.0,30.08,ESE,121,3.0,7.0,77,0.00,,,0.00,weatherlink.com 1.10,2013-02-07 01:57:00,
2013-02-06 20:12:00,38.8,33.0,30.08,SE,128,2.0,7.0,78,0.00,,,0.00,weatherlink.com 1.10,2013-02-07 02:12:00,
2013-02-06 20:27:00,38.2,32.0,30.08,SE,128,5.0,9.0,79,0.00,,,0.00,weatherlink.com 1.10,2013-02-07 02:27:00,
2013-02-06 20:42:00,38.0,32.0,30.07,ESE,110,5.0,10.0,80,0.00,,,0.00,weatherlink.com 1.10,2013-02-07 02:42:00,
2013-02-06 20:57:00,37.5,32.0,30.08,ESE,117,3.0,8.0,81,0.00,,,0.00,weatherlink.com 1.10,2013-02-07 02:57:00,
2013-02-06 21:13:00,37.2,32.0,30.08,ESE,117,4.0,5.0,81,0.00,,,0.00,weatherlink.com 1.10,2013-02-07 03:13:00,
2013-02-06 21:27:00,36.9,32.0,30.08,ESE,119,3.0,6.0,81,0.00,,,0.00,weatherlink.com 1.10,2013-02-07 03:27:00,
2013-02-06 21:43:00,36.7,32.0,30.07,SSE,167,7.0,8.0,82,0.00,,,0.00,weatherlink.com 1.10,2013-02-07 03:43:00,
2013-02-06 21:58:00,36.5,32.0,30.08,SE,127,4.0,9.0,82,0.00,,,0.00,weatherlink.com 1.10,2013-02-07 03:58:00,
2013-02-06 22:13:00,36.7,32.0,30.07,SE,127,6.0,10.0,82,0.00,,,0.00,weatherlink.com 1.10,2013-02-07 04:13:00,
2013-02-06 22:28:00,36.7,32.0,30.07,SE,136,4.0,11.0,82,0.00,,,0.00,weatherlink.com 1.10,2013-02-07 04:28:00,
2013-02-06 22:43:00,36.5,32.0,30.06,SE,143,7.0,10.0,83,0.00,,,0.00,weatherlink.com 1.10,2013-02-07 04:43:00,
2013-02-06 22:58:00,36.3,32.0,30.06,ESE,113,7.0,12.0,83,0.00,,,0.00,weatherlink.com 1.10,2013-02-07 04:58:00,
2013-02-06 23:13:00,36.3,32.0,30.06,SSE,153,5.0,11.0,83,0.00,,,0.00,weatherlink.com 1.10,2013-02-07 05:13:00,
2013-02-06 23:28:00,36.7,32.0,30.05,ESE,122,4.0,12.0,83,0.00,,,0.00,weatherlink.com 1.10,2013-02-07 05:28:00,
2013-02-06 23:43:00,37.1,32.0,30.08,SW,219,3.0,15.0,82,0.00,,,0.00,weatherlink.com 1.10,2013-02-07 05:43:00,
2013-02-06 23:58:00,36.7,33.0,30.07,ESE,121,7.0,12.0,85,0.00,,,0.00,weatherlink.com 1.10,2013-02-07 05:58:00,